Hourly Weather Lagny-sur-Marne

Today, 27 February, Saturday

Time Temperature Precipitation Wind Pressure Humidity
00:00 +3°C° 0 mm 3 mps 768 mmHg 78%
01:00 +3°C° 0 mm 3 mps 768 mmHg 80%
02:00 +3°C° 0 mm 3 mps 768 mmHg 81%
03:00 +2°C° 0 mm 3 mps 767 mmHg 82%
04:00 +2°C° 0 mm 3 mps 767 mmHg 83%
05:00 +2°C° 0 mm 3 mps 767 mmHg 84%
06:00 +1°C° 0 mm 4 mps 768 mmHg 84%
07:00 +3°C° 0 mm 4 mps 768 mmHg 80%
08:00 +4°C° 0 mm 4 mps 768 mmHg 76%
09:00 +3°C° 0 mm 5 mps 768 mmHg 73%
10:00 +6°C° 0 mm 5 mps 768 mmHg 67%
11:00 +7°C° 0 mm 5 mps 768 mmHg 62%
12:00 +8°C° 0 mm 6 mps 768 mmHg 57%
13:00 +8°C° 0 mm 6 mps 767 mmHg 57%
14:00 +9°C° 0 mm 5 mps 767 mmHg 56%
15:00 +9°C° 0 mm 5 mps 766 mmHg 56%
16:00 +8°C° 0 mm 5 mps 766 mmHg 61%
17:00 +7°C° 0 mm 5 mps 766 mmHg 66%
18:00 +6°C° 0 mm 4 mps 766 mmHg 71%
19:00 +5°C° 0 mm 4 mps 766 mmHg 73%
20:00 +5°C° 0 mm 4 mps 766 mmHg 76%
21:00 +3°C° 0 mm 5 mps 766 mmHg 78%
22:00 +3°C° 0 mm 5 mps 766 mmHg 79%
23:00 +3°C° 0 mm 5 mps 766 mmHg 79%

Tomorrow, 28 February, Sunday

Time Temperature Precipitation Wind Pressure Humidity
00:00 +3°C° 0 mm 4 mps 766 mmHg 80%
01:00 +3°C° 0 mm 4 mps 765 mmHg 81%
02:00 +3°C° 0 mm 4 mps 765 mmHg 83%
03:00 +1°C° 0 mm 4 mps 764 mmHg 85%
04:00 +1°C° 0 mm 4 mps 764 mmHg 86%
05:00 +1°C° 0 mm 4 mps 764 mmHg 86%
06:00 0°C° 0 mm 4 mps 764 mmHg 87%
07:00 +1°C° 0 mm 5 mps 764 mmHg 81%
08:00 +2°C° 0 mm 5 mps 764 mmHg 76%
09:00 +3°C° 0 mm 5 mps 764 mmHg 70%
10:00 +5°C° 0 mm 5 mps 764 mmHg 65%
11:00 +7°C° 0 mm 5 mps 764 mmHg 60%
12:00 +8°C° 0 mm 5 mps 764 mmHg 55%
13:00 +9°C° 0 mm 5 mps 763 mmHg 54%
14:00 +9°C° 0 mm 5 mps 763 mmHg 52%
15:00 +10°C° 0 mm 5 mps 762 mmHg 51%
16:00 +9°C° 0 mm 5 mps 762 mmHg 56%
17:00 +8°C° 0 mm 4 mps 762 mmHg 61%
18:00 +7°C° 0 mm 3 mps 762 mmHg 65%
19:00 +6°C° 0 mm 4 mps 762 mmHg 66%
20:00 +5°C° 0 mm 4 mps 762 mmHg 68%
21:00 +5°C° 0 mm 4 mps 762 mmHg 69%
22:00 +4°C° 0 mm 4 mps 762 mmHg 70%
23:00 +4°C° 0 mm 3 mps 762 mmHg 72%

Day after tomorrow, 1 March, Monday

Time Temperature Precipitation Wind Pressure Humidity
00:00 +3°C° 0 mm 3 mps 762 mmHg 73%
01:00 +3°C° 0 mm 3 mps 762 mmHg 74%
02:00 +2°C° 0 mm 3 mps 762 mmHg 76%
03:00 +2°C° 0 mm 3 mps 761 mmHg 77%
04:00 +2°C° 0 mm 3 mps 761 mmHg 77%
05:00 +1°C° 0 mm 3 mps 761 mmHg 78%
06:00 +1°C° 0 mm 3 mps 761 mmHg 78%
07:00 +2°C° 0 mm 3 mps 761 mmHg 75%
08:00 +3°C° 0 mm 3 mps 761 mmHg 71%
09:00 +4°C° 0 mm 4 mps 761 mmHg 68%
10:00 +6°C° 0 mm 4 mps 761 mmHg 64%
11:00 +8°C° 0 mm 3 mps 761 mmHg 60%
12:00 +10°C° 0 mm 3 mps 761 mmHg 55%
13:00 +10°C° 0 mm 3 mps 760 mmHg 55%
14:00 +11°C° 0 mm 3 mps 760 mmHg 55%
15:00 +11°C° 0 mm 3 mps 760 mmHg 55%
16:00 +10°C° 0 mm 3 mps 760 mmHg 61%
17:00 +9°C° 0 mm 2 mps 760 mmHg 67%
18:00 +8°C° 0 mm 2 mps 760 mmHg 73%
19:00 +7°C° 0 mm 2 mps 760 mmHg 76%
20:00 +6°C° 0 mm 2 mps 760 mmHg 78%
21:00 +6°C° 0 mm 2 mps 760 mmHg 81%
22:00 +6°C° 0 mm 2 mps 760 mmHg 83%
23:00 +6°C° 0 mm 1 mps 760 mmHg 86%

2 March, Tuesday

Time Temperature Precipitation Wind Pressure Humidity
00:00 +6°C° 0 mm 1 mps 760 mmHg 88%
01:00 +6°C° 0 mm 1 mps 760 mmHg 89%
02:00 +6°C° 0 mm 1 mps 760 mmHg 90%
03:00 +6°C° 0 mm 1 mps 759 mmHg 91%
04:00 +6°C° 0 mm 1 mps 760 mmHg 91%
05:00 +6°C° 0 mm 1 mps 760 mmHg 91%
06:00 +6°C° 0 mm 1 mps 760 mmHg 91%
07:00 +7°C° 0 mm 1 mps 760 mmHg 87%
08:00 +7°C° 0 mm 2 mps 760 mmHg 83%
09:00 +8°C° 0 mm 2 mps 761 mmHg 79%
10:00 +10°C° 0 mm 2 mps 761 mmHg 71%
11:00 +13°C° 0 mm 2 mps 761 mmHg 64%
12:00 +14°C° 0 mm 2 mps 761 mmHg 56%
13:00 +15°C° 0 mm 2 mps 761 mmHg 53%
14:00 +16°C° 0 mm 2 mps 761 mmHg 50%
15:00 +16°C° 0 mm 2 mps 760 mmHg 47%
16:00 +15°C° 0 mm 2 mps 760 mmHg 53%
17:00 +13°C° 0 mm 2 mps 761 mmHg 58%
18:00 +12°C° 0 mm 2 mps 761 mmHg 64%
19:00 +12°C° 0 mm 2 mps 761 mmHg 66%
20:00 +10°C° 0 mm 2 mps 761 mmHg 69%
21:00 +10°C° 0 mm 2 mps 761 mmHg 71%
22:00 +9°C° 0 mm 2 mps 761 mmHg 72%
23:00 +9°C° 0 mm 2 mps 761 mmHg 72%

3 March, Wednesday

Time Temperature Precipitation Wind Pressure Humidity
00:00 +9°C° 0 mm 2 mps 761 mmHg 72%
01:00 +9°C° 0 mm 2 mps 761 mmHg 74%
02:00 +8°C° 0 mm 2 mps 761 mmHg 75%
03:00 +8°C° 0 mm 2 mps 761 mmHg 76%
04:00 +8°C° 0 mm 2 mps 761 mmHg 78%
05:00 +8°C° 0 mm 2 mps 761 mmHg 80%
06:00 +7°C° 0 mm 2 mps 761 mmHg 82%
07:00 +8°C° 0 mm 2 mps 761 mmHg 82%
08:00 +9°C° 0 mm 2 mps 762 mmHg 81%
09:00 +10°C° 0 mm 3 mps 762 mmHg 81%
10:00 +11°C° 0 mm 3 mps 762 mmHg 73%
11:00 +13°C° 0 mm 3 mps 762 mmHg 64%
12:00 +14°C° 0 mm 3 mps 761 mmHg 56%
13:00 +14°C° 0 mm 3 mps 761 mmHg 56%
14:00 +14°C° 0 mm 3 mps 761 mmHg 56%
15:00 +14°C° 0 mm 3 mps 761 mmHg 56%
16:00 +13°C° 0 mm 3 mps 760 mmHg 60%
17:00 +12°C° 0 mm 3 mps 760 mmHg 65%
18:00 +12°C° 0 mm 2 mps 760 mmHg 70%
19:00 +12°C° 0.1 mm 2 mps 760 mmHg 73%
20:00 +10°C° 0.1 mm 2 mps 760 mmHg 77%
21:00 +10°C° 0.1 mm 2 mps 761 mmHg 81%
22:00 +9°C° 0 mm 2 mps 760 mmHg 83%
23:00 +8°C° 0 mm 2 mps 760 mmHg 86%

4 March, Thursday

Time Temperature Precipitation Wind Pressure Humidity
00:00 +9°C° 0 mm 1 mps 760 mmHg 89%
01:00 +9°C° 0 mm 1 mps 760 mmHg 90%
02:00 +8°C° 0 mm 1 mps 760 mmHg 92%
03:00 +8°C° 0 mm 1 mps 759 mmHg 93%
04:00 +8°C° 0 mm 1 mps 759 mmHg 92%
05:00 +9°C° 0 mm 1 mps 759 mmHg 92%
06:00 +9°C° 0 mm 1 mps 759 mmHg 91%
07:00 +9°C° 0 mm 1 mps 759 mmHg 89%
08:00 +9°C° 0 mm 1 mps 759 mmHg 87%
09:00 +10°C° 0 mm 1 mps 759 mmHg 85%
10:00 +10°C° 0 mm 1 mps 759 mmHg 80%
11:00 +11°C° 0 mm 1 mps 759 mmHg 76%
12:00 +10°C° 0 mm 2 mps 759 mmHg 71%
13:00 +12°C° 0 mm 2 mps 759 mmHg 69%
14:00 +12°C° 0 mm 2 mps 758 mmHg 67%
15:00 +12°C° 0 mm 2 mps 758 mmHg 66%
16:00 +10°C° 0 mm 2 mps 758 mmHg 68%
17:00 +10°C° 0 mm 2 mps 758 mmHg 71%
18:00 +9°C° 0 mm 2 mps 757 mmHg 74%
19:00 +9°C° 0 mm 2 mps 758 mmHg 76%
20:00 +8°C° 0 mm 2 mps 758 mmHg 77%
21:00 +7°C° 0 mm 3 mps 758 mmHg 79%
22:00 +5°C° 0 mm 3 mps 758 mmHg 81%
23:00 +5°C° 0 mm 3 mps 758 mmHg 82%
Show more

We Need Your Consent

Meteoprog and our Service Providers may store and access personal data such as cookies, device identifiers or other similar technologies on your device and process such data to personalise content and ads, as well as provide social media features and to analyse the traffic.

  • Store and/or access information on your device

    Cookies, device identifiers or other information can be stored or accessed on your device for the purposes indicated above.

  • Personalised ads and content, ad and content measurement, audience insights, and products development

    Ads and content can be personalised based on a profile. More data can be added to better personalise ads and content. Ad and content performance can be measured. Insights about the audience who saw the ads and content can be derived. Such data can be used to develop or improve user’s experience, systems and software.

By clicking ‘I Agree’ you will allow the use of indicated cookies, device identifiers, web beacons or other similar technologies. Your settings can be changed in the browser on your device.

For certain purposes, legitimate interests may be relied on, rather than consent. You can read more about this in our Privacy and Cookie Policy.